Regional Weather Roundup
Issued by NWS Bismarck, ND

Home | Current Version | Previous Version | Text Only | Print | Product List | Glossary On
Versions: 1 2 3 4 5 6 7 8 9 10 11 12 13 14 15 16 17 18 19 20 21 22 23 24 25 26 27 28 29 30 31 32 33 34 35 36 37 38 39 40 41 42 43 44 45 46 47 48 49 50
000
ASUS43 KBIS 050802
RWRBIS

NWR BROADCAST TEXT
NATIONAL WEATHER SERVICE BISMARCK ND
300 AM CDT SAT SEP 05 2015

NOTE: "FAIR" INDICATES FEW OR NO CLOUDS BELOW 12,000 FEET WITH NO
SIGNIFICANT WEATHER AND/OR OBSTRUCTIONS TO VISIBILITY.


CITY           SKY/WX    TMP DP  RH WIND       PRES   REMARKS
WILLISTON      LGT RAIN  59  57  93 N9        29.92R FOG
MINOT          CLOUDY    60  59  96 N12       29.90F FOG
MINOT AFB      NOT AVBL
BISMARCK       PTCLDY    68  67  96 NE7       29.84S
DICKINSON      LGT RAIN  63  61  93 N9        29.88F
GARRISON         N/A     63  61  93 NE8       29.88F
HETTINGER ARPT MOCLDY    66  62  87 N16G24    29.89R
JAMESTOWN      CLEAR     65  64  97 NE5       29.85S FOG
HAZEN          FOG       64  64 100 NE10G16   29.88R VSB 1
OAKES            N/A     66  66 100 E5        29.83F
STANLEY        CLOUDY    57  57 100 NE9G22    29.92S FOG
$$

CITY           SKY/WX    TMP DP  RH WIND       PRES   REMARKS
GRAND FORKS    CLOUDY    65  64  97 N10       29.87S
GRAND FORKS AF FOG       65  64  99 NE10      29.89R VSB 3/4
DEVILS LAKE    CLOUDY    63  57  82 NE10      29.90R
FARGO          CLEAR     72  68  87 SE7       29.83F
CAVALIER       CLOUDY    63  63 100 N12G17    29.90S FOG
GRAFTON        FOG       63  63 100 N9        29.90S VSB 1/4
GWINNER          N/A     68  68 100 CALM      29.84S
LANGDON        FOG       61  61 100 N14       29.92F VSB 1/4
$$

CITY           SKY/WX    TMP DP  RH WIND       PRES   REMARKS
ABERDEEN       CLEAR     69  67  93 CALM      29.81S
MOBRIDGE       MOCLDY    72  72 100 E7        29.78S
BUFFALO          N/A     66  59  78 N15       29.78F
RAPID CITY     CLOUDY    67  60  78 CALM      29.80F
GLASGOW        LGT RAIN  55  46  71 NE17      29.96S
SIDNEY         CLOUDY    61  57  88 N13         N/A
WOLF POINT     CLOUDY    60  46  59 NE17      29.94F
GLENDIVE       CLOUDY    61  59  94 NE16      29.87R
MILES CITY     MOCLDY    63  57  81 N10       29.84R
BAKER          CLOUDY    61  32  33 E12       29.83F
$$

CITY           SKY/WX    TMP DP  RH WIND       PRES   REMARKS
BILLINGS       CLOUDY    55  46  71 N5        29.95R
GREAT FALLS    LGT RAIN  49  49 100 NE14      29.94F VSB 1
$$




USA.gov is the U.S. government's official web portal to all federal, state and local government web resources and services.